Powrót do katalogu

STARLINK-36155

AktywnyŁącznośćVLEO
NORAD 66938·PAYLOAD·🇺🇸 United States

Wystrzelony Dec 7, 2025 z Vandenberg Space Force Base

Loading…

Następne Przeloty (najbliższe 24 godziny)

TLE

ŚwieżeSource: CelesTrak SupGP

Epoka: Sep 14, 2026, 21:44 UTC

1 66938C 25286P   26257.90604167  .00009070  00000+0  26816-3 0  2578
2 66938  53.1576 195.8049 0000993  98.2709 115.8360 15.34365255    17

Śledź STARLINK-36155 w czasie rzeczywistym z AllMySat

Download on the App Store